Portada
METAR-TAF:

METAR-TAF

Aeroports :

Jasper, Geòrgia, Estats Units d'Amèrica

latitud: 34-27-12N, longitud: 084-27-26W, altitud: 468 m

Observació

L'informe es va fer fa 29 minuts, a les 14:55 UTC
Vent 4 kt del Nord/Nord-Est
Temperatura 7°C
Humitat 61%
Pressió 1015 hPa
Visibilitat: 16.1 km
Cel cobert a una alçada de 3000 ft

METAR: KJZP 011455Z AUTO 03004KT 10SM OVC030 07/00 A2998 RMK AO2 T00650001

Hora: 11:24 (15:24 UTC)


TAF: manca

Observacions i pronòstics meteorològics de més de 4000 aeroports (METAR i TAF).

Les estacions disponibles són els punts grocs i vermells al mapa.

Posi el ratolí al punt desitjat per veure el nom de l'estació.

Feu clic per veure les observacions i els pronòstics meteorològics.

Per canviar el mapa: feu clic els botons verds amb una creu de color negre per apropar; al botó verd amb un guió per allunyar la imatge; o en les fletxes verdes per a mapes adjacents.


METAR-TAF: